Precipitable_Water
1.81 1.88 1.80 1.74 1.71 1.73 1.73 1.73 1.77 1.76 1.67 1.67 1.66 1.62 1.58 1.63 1.67 1.63 1.58 1.59 1.58 1.48 1.50 1.53 1.47 1.55 1.53 1.55 1.62 1.65 1.60 1.63 1.44 1.48 1.59 1.71 1.65 1.65 1.78 1.89 1.84 1.86 1.95
1.72 1.75 1.82 1.82 1.78 1.73 1.69 1.72 1.75 1.72 1.77 1.67 1.67 1.70 1.67 1.62 1.65 1.64 1.63 1.64 1.64 1.52 1.41 1.51 1.56 1.61 1.56 1.61 1.59 1.57 1.55 1.63 1.75 1.63 1.67 1.67 1.66 1.71 1.69 1.71 1.74 1.93 1.96
1.57 1.56 1.64 1.80 1.79 1.72 1.73 1.72 1.71 1.73 1.75 1.75 1.71 1.69 1.71 1.71 1.70 1.67 1.64 1.72 1.76 1.73 1.57 1.49 1.55 1.54 1.49 1.50 1.50 1.60 1.65 1.71 1.77 1.77 1.66 1.71 1.66 1.64 1.58 1.68 1.71 1.83 1.91
1.53 1.53 1.51 1.53 1.75 1.81 1.81 1.80 1.85 1.82 1.72 1.71 1.75 1.75 1.73 1.74 1.70 1.67 1.68 1.75 1.83 1.78 1.70 1.64 1.62 1.66 1.56 1.52 1.53 1.55 1.63 1.61 1.65 1.64 1.60 1.56 1.55 1.64 1.68 1.57 1.55 1.73 1.73
1.45 1.49 1.49 1.58 1.71 1.77 1.81 1.81 1.85 1.94 1.91 1.84 1.68 1.69 1.73 1.75 1.74 1.71 1.67 1.68 1.76 1.70 1.68 1.70 1.67 1.64 1.67 1.63 1.55 1.54 1.57 1.57 1.55 1.52 1.48 1.52 1.61 1.63 1.59 1.68 1.62 1.67 1.73
1.30 1.40 1.48 1.47 1.53 1.61 1.69 1.74 1.75 1.90 1.82 1.76 1.83 1.76 1.63 1.71 1.76 1.77 1.76 1.69 1.74 1.75 1.69 1.67 1.68 1.71 1.66 1.66 1.65 1.58 1.57 1.48 1.46 1.53 1.52 1.54 1.67 1.75 1.80 1.73 1.69 1.67 1.54
1.24 1.32 1.39 1.45 1.45 1.53 1.64 1.77 1.80 1.82 1.84 1.74 1.83 1.86 1.81 1.67 1.71 1.79 1.79 1.79 1.80 1.78 1.69 1.64 1.62 1.66 1.70 1.70 1.70 1.63 1.68 1.68 1.73 1.71 1.61 1.63 1.64 1.77 1.88 1.79 1.72 1.65 1.59
1.21 1.27 1.37 1.44 1.50 1.54 1.56 1.63 1.82 1.92 1.95 1.87 1.87 1.90 1.86 1.82 1.79 1.80 1.85 1.83 1.83 1.84 1.76 1.67 1.66 1.64 1.65 1.68 1.67 1.62 1.67 1.69 1.75 1.82 1.80 1.83 1.90 1.93 1.88 1.74 1.64 1.64 1.68
1.14 1.25 1.36 1.44 1.48 1.56 1.62 1.65 1.71 1.78 1.87 1.96 1.98 1.90 1.93 1.90 1.90 1.87 1.85 1.76 1.74 1.80 1.88 1.80 1.73 1.68 1.68 1.73 1.68 1.67 1.71 1.73 1.83 1.89 1.85 1.80 1.75 1.75 1.77 1.73 1.61 1.57 1.54
0.97 1.05 1.16 1.25 1.32 1.40 1.52 1.61 1.68 1.74 1.75 1.81 1.86 1.94 1.97 1.91 1.92 1.90 1.92 1.86 1.72 1.79 1.88 1.85 1.77 1.72 1.73 1.74 1.67 1.66 1.54 1.66 1.72 1.78 1.70 1.70 1.75 1.79 1.84 1.84 1.79 1.62 1.61
1.11 1.13 1.12 1.17 1.19 1.21 1.23 1.27 1.32 1.38 1.44 1.52 1.64 1.76 1.84 1.87 1.84 1.85 1.90 1.86 1.82 1.82 1.84 1.85 1.84 1.84 1.79 1.75 1.77 1.71 1.61 1.71 1.70 1.76 1.75 1.83 1.86 1.87 1.87 1.89 1.90 1.83 1.74
1.14 1.12 1.12 1.12 1.14 1.15 1.13 1.17 1.24 1.34 1.35 1.41 1.48 1.57 1.65 1.71 1.72 1.86 1.92 1.93 1.95 1.93 1.86 1.91 1.92 1.89 1.86 1.83 1.80 1.85 1.89 1.90 1.86 1.88 1.81 1.80 1.81 1.83 1.88 1.92 1.91 1.94 1.95
1.12 1.09 1.10 1.13 1.09 1.09 1.06 1.09 1.15 1.26 1.30 1.32 1.37 1.41 1.51 1.64 1.74 1.83 1.92 1.96 1.96 1.92 1.88 1.90 1.89 1.85 1.91 1.93 1.93 1.92 1.97 1.99 1.94 1.87 1.81 1.81 1.83 1.87 1.88 1.85 1.85 1.78 1.77
1.06 1.00 1.05 1.04 1.04 1.11 1.14 1.14 1.14 1.17 1.20 1.23 1.25 1.29 1.39 1.51 1.53 1.69 1.78 1.80 1.81 1.78 1.76 1.77 1.77 1.83 1.92 1.89 1.88 1.91 1.90 1.89 1.85 1.80 1.76 1.76 1.75 1.74 1.68 1.67 1.55 1.48 1.40
1.02 0.95 0.94 0.98 0.97 0.99 1.04 1.05 1.06 1.14 1.20 1.21 1.25 1.28 1.30 1.33 1.42 1.55 1.64 1.69 1.72 1.72 1.72 1.69 1.65 1.73 1.72 1.63 1.63 1.69 1.75 1.76 1.75 1.74 1.70 1.65 1.59 1.48 1.40 1.37 1.29 1.22 1.12
0.94 0.91 0.90 0.91 0.95 0.98 0.98 0.98 1.05 1.06 1.12 1.17 1.27 1.32 1.36 1.41 1.48 1.51 1.58 1.59 1.62 1.67 1.63 1.55 1.52 1.55 1.53 1.54 1.57 1.56 1.56 1.54 1.50 1.52 1.45 1.43 1.36 1.29 1.24 1.21 1.12 0.99 0.88
0.94 0.89 0.87 0.91 0.95 0.92 0.90 0.90 0.88 1.01 1.11 1.16 1.20 1.25 1.31 1.35 1.40 1.43 1.47 1.52 1.53 1.54 1.46 1.45 1.42 1.40 1.36 1.37 1.36 1.37 1.35 1.38 1.40 1.35 1.34 1.32 1.26 1.17 1.07 0.99 0.93 0.82 0.73
0.81 0.80 0.90 0.94 0.92 0.89 0.89 0.90 0.90 0.90 0.95 1.03 1.18 1.22 1.25 1.28 1.32 1.35 1.40 1.47 1.40 1.44 1.40 1.35 1.34 1.36 1.35 1.33 1.32 1.31 1.32 1.31 1.27 1.21 1.16 1.10 1.00 0.90 0.83 0.79 0.76 0.71 0.66
0.81 0.87 0.94 0.95 0.92 0.90 0.90 0.88 0.88 0.90 0.96 1.00 1.06 1.14 1.21 1.26 1.31 1.34 1.36 1.30 1.29 1.32 1.33 1.31 1.30 1.25 1.22 1.21 1.20 1.15 1.07 0.99 0.96 0.95 0.90 0.85 0.80 0.76 0.73 0.73 0.69 0.65 0.64
0.83 0.88 0.97 0.95 0.91 0.91 0.89 0.89 0.88 0.91 0.92 0.92 0.95 1.00 1.10 1.11 1.15 1.24 1.29 1.27 1.20 1.20 1.20 1.10 1.01 0.95 0.91 0.88 0.85 0.82 0.81 0.81 0.80 0.80 0.77 0.71 0.71 0.69 0.65 0.60 0.60 0.58 0.59
0.77 0.87 0.95 0.91 0.91 0.92 0.90 0.89 0.93 0.92 0.88 0.82 0.80 0.92 0.97 1.01 1.08 1.17 1.20 1.16 1.11 1.04 0.98 0.90 0.79 0.73 0.70 0.66 0.67 0.68 0.68 0.69 0.68 0.64 0.64 0.66 0.67 0.63 0.64 0.65 0.63 0.62 0.62
0.90 0.92 0.90 0.82 0.84 0.84 0.86 0.90 0.89 0.86 0.85 0.80 0.78 0.80 0.85 0.89 0.90 0.91 0.91 0.89 0.85 0.79 0.77 0.77 0.76 0.77 0.76 0.70 0.64 0.62 0.59 0.61 0.63 0.64 0.65 0.65 0.66 0.65 0.66 0.63 0.59 0.58 0.59
0.89 0.84 0.83 0.82 0.85 0.87 0.85 0.83 0.79 0.75 0.72 0.74 0.75 0.72 0.62 0.61 0.61 0.62 0.62 0.68 0.71 0.74 0.76 0.76 0.76 0.77 0.79 0.78 0.73 0.68 0.63 0.63 0.66 0.69 0.66 0.66 0.66 0.67 0.65 0.62 0.60 0.58 0.57
0.87 0.82 0.78 0.82 0.83 0.80 0.78 0.73 0.72 0.73 0.74 0.75 0.76 0.78 0.78 0.78 0.71 0.72 0.73 0.73 0.73 0.73 0.76 0.78 0.77 0.75 0.78 0.84 0.87 0.85 0.79 0.80 0.81 0.78 0.76 0.71 0.68 0.67 0.66 0.62 0.61 0.61 0.62
0.87 0.81 0.79 0.79 0.78 0.76 0.75 0.72 0.74 0.76 0.74 0.71 0.70 0.73 0.75 0.77 0.76 0.76 0.75 0.74 0.75 0.77 0.82 0.87 0.89 0.92 0.93 0.94 0.93 0.90 0.88 0.85 0.86 0.85 0.82 0.78 0.75 0.70 0.66 0.65 0.65 0.66 0.65
0.86 0.83 0.80 0.80 0.76 0.75 0.77 0.75 0.73 0.75 0.73 0.69 0.70 0.72 0.74 0.75 0.78 0.79 0.78 0.77 0.79 0.84 0.88 0.97 1.00 1.00 1.00 0.98 0.97 0.95 0.92 0.90 0.88 0.86 0.83 0.78 0.76 0.71 0.68 0.68 0.69 0.69 0.69
Wind_Speed
20 20 20 20 20 20 21 23 24 24 24 23 23 22 22 22 21 21 20 19 18 18 18 17 16 15 14 14 14 14 14 14 13 13 13 12 12 12 12 13 13 14 14
21 20 21 21 22 22 22 23 24 25 26 26 26 25 24 24 24 23 22 23 22 19 19 19 18 17 17 17 17 17 17 17 15 15 15 14 15 15 15 16 16 15 15
21 22 22 23 23 24 24 24 24 25 27 27 27 28 27 26 26 25 25 24 25 23 21 21 20 19 19 18 18 18 17 17 17 17 17 17 17 16 16 16 16 16 17
20 21 22 23 24 25 25 25 25 25 26 28 29 30 30 29 29 28 26 25 25 25 24 23 22 22 21 21 20 20 20 19 19 19 20 19 18 17 17 17 17 18 18
19 20 22 22 23 25 25 26 26 27 27 28 29 31 32 32 31 29 29 28 27 27 26 26 25 25 25 24 24 23 22 22 21 21 21 20 19 18 18 18 18 19 19
16 19 20 21 23 24 26 28 28 29 28 29 31 30 31 33 33 32 31 30 30 29 29 28 27 27 27 26 25 25 24 24 23 22 21 21 21 20 20 20 20 20 20
14 16 18 19 21 23 24 26 27 28 27 29 31 30 30 31 33 34 33 33 32 32 31 30 29 28 27 27 26 26 26 25 25 24 23 23 22 22 21 21 22 22 22
10 11 13 15 17 20 23 24 25 26 26 26 25 28 29 28 29 30 34 35 35 34 33 32 32 30 29 29 28 27 27 26 25 25 25 24 24 24 24 24 24 23 23
7 7 8 9 11 12 14 17 20 22 24 25 25 24 26 31 33 31 31 33 35 36 36 35 34 32 31 30 29 28 27 26 25 26 25 25 25 26 26 25 25 25 25
5 5 5 5 5 6 8 10 12 15 18 20 23 26 27 28 29 32 33 35 35 35 35 35 34 33 32 31 31 30 29 29 28 27 26 26 26 26 26 26 26 27 26
5 5 5 5 5 6 6 7 9 11 13 14 16 19 22 24 27 30 33 32 35 35 34 33 33 33 32 32 32 32 31 29 29 28 27 26 26 26 26 26 27 27 28
7 7 7 7 7 8 9 9 10 10 11 11 13 14 15 18 21 24 27 29 30 31 31 31 30 30 31 31 30 30 30 29 28 29 27 25 26 26 26 26 25 25 23
9 9 10 10 10 10 10 10 10 9 9 10 10 11 12 14 14 17 16 17 22 25 27 29 29 28 30 29 28 27 27 27 27 26 26 25 25 25 23 20 16 17 17
11 11 12 12 12 12 12 12 11 11 11 10 10 10 10 11 12 14 15 15 16 20 24 23 23 23 21 22 25 27 26 25 25 24 23 21 20 19 18 17 15 15 14
13 13 13 13 12 12 12 12 12 12 13 12 12 12 12 11 10 10 11 12 13 15 15 16 19 18 17 15 15 16 19 20 20 20 19 19 18 17 15 14 13 14 14
15 14 14 12 12 11 11 11 11 12 12 13 14 13 13 12 10 9 9 7 7 8 9 9 9 10 11 12 12 13 11 12 13 13 12 12 13 14 14 14 13 12 12
15 14 12 11 11 10 10 9 9 9 9 10 11 12 12 11 10 8 7 7 6 7 7 6 7 8 9 9 10 10 11 11 11 12 13 13 13 13 13 12 11 10 10
13 11 10 9 8 7 7 7 7 7 8 8 9 9 10 10 10 10 9 9 8 9 9 9 9 9 10 11 11 11 12 12 12 12 12 12 12 11 11 10 10 10 10
12 11 10 8 7 6 5 4 5 6 6 6 7 8 9 10 11 11 11 11 11 11 11 11 11 11 11 11 11 10 10 10 10 10 10 10 10 10 10 10 11 11 11
11 11 10 8 8 7 6 5 5 5 5 5 6 7 8 9 11 12 11 11 10 10 10 10 9 9 9 10 10 10 10 10 10 10 10 10 10 10 11 11 11 11 11
11 10 9 8 7 7 6 4 3 3 3 4 4 4 5 6 7 9 10 10 9 9 9 9 10 10 10 10 10 10 10 10 10 10 11 11 12 12 12 12 12 12 11
11 10 9 8 7 6 5 4 3 1 1 2 3 3 2 2 3 5 7 9 10 10 10 10 10 10 10 10 10 10 11 11 11 12 12 13 13 13 13 12 12 12 13
11 10 9 8 7 6 5 4 3 2 1 1 2 2 2 2 2 3 4 5 6 7 8 9 9 10 10 10 11 11 12 12 13 13 14 14 14 14 14 14 14 14 14
12 10 10 9 8 7 7 6 5 4 4 4 4 4 3 3 3 4 4 4 5 6 6 7 8 9 10 11 12 13 14 14 14 14 14 14 15 15 15 16 16 16 17
13 11 10 10 9 9 9 9 9 8 8 8 8 8 8 8 8 7 7 7 7 7 8 8 9 10 12 13 14 14 14 15 15 16 16 17 17 18 18 18 18 19 19
14 13 12 11 10 11 11 12 13 13 12 11 11 10 10 10 11 11 11 11 11 12 12 13 13 14 15 15 15 15 16 16 17 17 17 18 19 20 20 21 21 21 21
Wind_Direction
232 238 235 234 237 238 238 238 237 237 237 239 239 239 238 237 235 236 240 242 245 246 246 249 250 252 253 253 255 257 259 261 264 269 271 275 279 278 277 275 279 281 281
236 238 238 239 239 240 242 242 241 240 240 240 239 240 240 239 239 240 242 243 245 247 247 247 250 253 254 257 258 260 260 260 260 267 269 274 277 278 277 276 278 279 277
240 241 243 243 244 244 244 244 244 243 242 241 241 240 241 241 241 243 246 247 243 246 247 247 249 252 257 259 260 258 261 260 260 262 268 274 276 277 277 277 278 278 279
244 244 247 247 245 245 245 244 246 247 246 244 244 243 243 244 243 245 246 247 245 245 248 249 250 253 257 259 260 259 258 260 260 263 267 270 273 274 276 278 279 280 280
245 248 249 248 247 246 247 246 246 248 249 250 246 246 244 244 244 245 247 247 246 247 248 250 254 255 257 258 258 257 258 259 262 263 265 266 271 272 275 278 280 281 282
249 250 253 252 251 250 250 250 252 252 256 250 246 248 246 244 244 244 245 247 247 247 251 253 255 257 258 257 256 256 257 258 260 262 264 264 268 271 274 276 278 280 283
256 258 259 257 255 254 254 252 252 250 250 256 247 245 249 245 244 244 245 246 247 248 250 253 254 257 258 256 257 256 257 257 258 261 262 265 269 270 272 276 278 278 280
263 266 267 265 262 259 257 254 254 251 252 249 252 251 242 244 246 247 247 248 248 249 251 252 254 256 256 255 256 256 256 257 257 259 262 265 267 270 273 276 277 278 280
266 274 277 274 268 265 262 258 255 256 257 255 250 249 250 250 249 249 252 250 250 250 250 252 253 254 254 253 254 255 255 256 258 260 263 266 269 271 272 274 276 278 280
260 271 282 292 286 279 273 267 264 263 261 259 256 255 255 254 250 251 253 252 251 251 250 250 250 251 252 252 252 254 254 255 256 260 264 266 268 270 272 273 276 278 280
258 268 278 287 289 290 291 289 283 278 273 269 265 262 256 256 257 256 253 253 249 251 247 248 249 249 251 251 252 253 254 255 256 260 262 265 267 270 273 275 277 278 280
262 270 275 280 283 288 290 291 291 285 283 278 272 271 262 263 267 264 250 253 247 246 241 244 247 248 251 251 251 253 253 255 255 260 260 263 267 271 273 276 279 281 279
262 270 273 276 279 284 289 292 292 290 286 289 286 278 271 272 267 257 261 254 245 241 243 245 246 249 252 248 249 251 252 252 255 260 264 265 273 266 267 271 271 278 280
265 272 274 274 275 278 280 283 285 284 284 285 284 285 283 277 274 268 260 255 248 246 240 249 249 242 246 248 250 252 251 255 254 255 258 259 260 261 269 274 272 274 279
265 273 273 272 273 276 278 282 282 280 279 279 279 279 276 275 275 270 263 258 254 248 247 253 243 245 239 244 244 246 249 250 247 251 249 253 259 259 262 268 273 276 278
267 270 270 266 268 272 275 280 287 285 282 279 278 275 273 269 266 266 257 254 247 239 240 242 237 237 238 239 242 246 243 245 249 240 245 248 251 256 263 269 272 275 278
265 261 258 258 262 267 273 277 285 292 293 289 283 277 268 258 252 247 245 239 238 244 240 241 238 242 244 247 248 250 249 250 249 249 252 257 259 262 264 266 269 273 275
249 242 243 248 253 257 260 269 282 294 295 297 296 280 266 253 245 243 245 242 251 249 248 249 250 253 255 257 257 258 256 256 256 256 256 256 257 258 257 260 266 270 274
231 231 229 232 234 238 242 271 294 300 300 303 301 284 267 256 251 250 251 252 253 254 254 256 259 260 261 261 260 261 257 255 254 253 252 252 253 253 256 261 268 272 275
223 217 220 225 229 237 246 273 294 304 307 309 305 290 274 264 257 252 250 251 252 253 255 257 260 262 263 263 260 259 257 254 251 250 251 251 253 257 263 267 269 272 272
209 212 218 223 227 231 245 259 281 307 324 331 321 311 287 272 257 249 245 245 249 254 257 259 261 263 263 262 258 256 255 254 252 252 253 254 259 264 267 269 268 268 271
206 212 214 213 218 224 232 234 244 272 339 5 13 13 1 304 272 253 249 249 252 255 258 260 260 262 262 262 261 258 257 255 256 257 260 263 264 265 266 267 265 268 274
204 205 208 212 210 209 212 214 221 241 290 326 350 358 347 309 294 274 259 253 257 259 262 264 265 264 263 263 263 262 262 262 262 263 266 268 266 264 263 264 266 272 276
203 206 209 209 210 214 220 229 234 243 264 279 284 286 290 294 286 272 267 266 268 271 272 271 271 269 268 267 267 265 263 263 264 265 266 267 265 263 263 264 268 272 277
204 205 208 212 219 228 234 238 242 251 263 268 271 272 273 272 272 270 269 266 268 273 274 276 277 278 277 274 270 268 268 264 264 266 268 267 267 265 264 266 269 273 277
209 215 220 226 236 245 248 251 253 255 261 264 267 270 273 272 270 268 267 266 267 272 276 279 281 281 283 280 274 271 268 268 267 267 270 269 268 268 268 268 269 274 275